RS-38S
1 57189U 23091Z   26209.17249894  .00019177  00000-0  52706-3 0  9996
2 57189  97.5074 279.5096 0005213 281.0496  79.0161 15.37246103170984
SONATE-2
1 59112U 24043Q   26208.92795815  .00047274  00000-0  54491-3 0  9995
2 59112  97.5566   1.9292 0006007  62.0250 298.1614 15.61803488134248
GRBBeta
1 60237U 24128C   26208.63505263  .00004167  00000-0  28826-3 0  9990
2 60237  61.9900  74.3289 0035313 143.5062 216.8448 15.06885113112368
Curium One
1 60242U 24128H   26209.15167354  .00009016  00000-0  51219-3 0  9999
2 60242  61.9785  60.6278 0034710 139.0942 221.2768 15.13036308112657
ROBUSTA-3A
1 60243U 24128J   26209.14003122  .00009536  00000-0  55360-3 0  9999
2 60243  61.9865  63.3708 0036278 136.8022 223.5929 15.12158307112613
CatSat
1 60246U 24125J   26208.58424917  .00076393  00000-0  80379-3 0  9998
2 60246  97.2048  61.7550 0018109  38.3122 321.9420 15.63851495113690
HYPERVIEW-1G (RS66S)
1 61772U 24199AP  26209.09461424  .00308185  37777-4  93096-3 0  9997
2 61772  97.2760  91.2921 0007827 129.7977 230.3988 15.92101893141149
AO-123
1 61781U 24199AY  26209.14344176  .00008605  00000-0  24520-3 0  9992
2 61781  97.2947  77.4489 0014420 154.5499 205.6458 15.36221825140213
JINJUSat 1B
1 63210U 25052A   26208.52108630  .00018263  00000-0  54465-3 0  9996
2 63210  97.3958 105.3545 0001517 344.6492  15.4705 15.34704147 76285
NUSHSAT 1
1 63211U 25052B   26209.21179206  .00024775  00000-0  67394-3 0  9991
2 63211  97.3928 106.7629 0001284   9.0400 351.0868 15.37522881 76446
TEVEL2-4
1 63213U 25052D   26208.20046728  .00020041  00000-0  57403-3 0  9995
2 63213  97.3851 104.6857 0002085  30.6703 329.4663 15.35954659 76250
TEVEL2-5
1 63214U 25052E   26208.22572217  .00019518  00000-0  56262-3 0  9994
2 63214  97.3850 104.6472 0002290  32.3645 327.7739 15.35761076 76259
TEVEL2-6
1 63215U 25052F   26208.23897430  .00019211  00000-0  55444-3 0  9994
2 63215  97.3858 104.6452 0002209  33.5282 326.6102 15.35725425 76256
TEVEL2-1
1 63217U 25052H   26208.21738020  .00018953  00000-0  55724-3 0  9996
2 63217  97.3828 104.1985 0002997  34.0260 326.1175 15.35142068 76236
TEVEL2-3
1 63218U 25052J   26209.18813017  .00022063  00000-0  64589-3 0  9990
2 63218  97.3830 105.1983 0002696  38.5202 321.6233 15.35247884 76383
TEVEL2-2
1 63219U 25052K   26209.19514176  .00021196  00000-0  62175-3 0  9991
2 63219  97.3827 105.1807 0002814  32.3975 327.7441 15.35193169 76380
TEVEL2-9
1 63237U 25052AD  26208.50894344  .00017643  00000-0  55354-3 0  9996
2 63237  97.3893 103.7786 0006259  21.3432 338.8070 15.33081855 76204
TEVEL2-7
1 63238U 25052AE  26209.21082362  .00018677  00000-0  59131-3 0  9990
2 63238  97.3886 104.3778 0006246  19.1217 341.0258 15.32781838 76309
TEVEL2-8
1 63239U 25052AF  26208.95832927  .00018470  00000-0  58519-3 0  9991
2 63239  97.3892 104.1013 0006285  19.9482 340.2005 15.32758854 76260
SPIRONE
1 66657U 25274H   26208.24961354  .00001919  00000-0  18664-3 0  9990
2 66657  97.7469 136.9710 0010524 237.3421 122.6784 14.93694262 36202
K-HERO
1 66660U 25274L   26208.24318830  .00001771  00000-0  17091-3 0  9998
2 66660  97.7479 137.1549 0012336 242.8636 117.1327 14.94099521 36213
SNUGLITE-III DURI
1 66661U 25274M   26208.23011249  .00001925  00000-0  18515-3 0  9995
2 66661  97.7475 137.1630 0012974 243.9724 116.0160 14.94123662 36216
SAKHACUBE-CHOLBON
1 67290U 25313AU  26208.18003534  .00009467  00000-0  37552-3 0  9991
2 67290  97.3921 282.7288 0008643 204.1620 155.9214 15.25549521 32078
RS95S (QMR-KWT-2)
1 67291U 25313AV  26208.19312125  .00013997  00000-0  52592-3 0  9996
2 67291  97.3922 283.0089 0008476 200.8616 159.2278 15.27254224 32099
Ten-Koh2
1 68261U 25241B   26209.06261780  .00008397  00000-0  35194-3 0  9998
2 68261  51.6556 125.0298 0004975 273.4755  86.5655 15.24311798 21142
JACK-002
1 68417U 26067B   26209.11863986  .00007455  00000-0  35061-3 0  9997
2 68417  97.4584 167.2222 0003843 112.3365 247.8277 15.19854323 18160
DISCO 2
1 68431U 26067R   26209.14690591  .00009282  00000-0  43837-3 0  9996
2 68431  97.4623 167.2409 0002127 149.6856 210.4502 15.19644069 18160
HADES-SA (SpinnyONE)
1 68446U 26067AG  26208.32048383  .00019161  00000-0  88187-3 0  9991
2 68446  97.4415 166.0570 0004308 311.9002  48.1865 15.20355710 18028
PARUS-6U1
1 68456U 26067AS  26208.86744747  .00005928  00000-0  29556-3 0  9999
2 68456  97.4574 166.6223 0003586 290.4938  69.5911 15.17911871 18102
SAL-E
1 68458U 26067AU  26207.86583761  .00007648  00000-0  37618-3 0  9996
2 68458  97.4499 165.5506 0003905 311.1756  48.9141 15.18286015 17950
FSI-SAT 2
1 68792U 26088A   26208.92217735  .00003848  00000-0  25975-3 0  9994
2 68792  97.5109 357.1779 0013392 333.9523  26.1029 15.07123880 14426
OrigamiSat 2
1 68795U 26088D   26208.87260053  .00013316  00000-0  83066-3 0  9998
2 68795  97.5111 357.3997 0013358 300.5270  59.4640 15.09567782 14431
ARICA 2
1 68796U 26088E   26209.15302718  .00004743  00000-0  30566-3 0  9997
2 68796  97.5108 357.6239 0014147 300.7727  59.2109 15.08717130 14471
WASEDA-SAT-ZERO-II
1 68797U 26088F   26209.14123375  .00006269  00000-0  39900-3 0  9993
2 68797  97.5106 357.6368 0013835 300.3558  59.6302 15.09052894 14473
MANGARO-II-Piscus
1 68798U 26088G   26208.93098162  .00003646  00000-0  23359-3 0  9992
2 68798  97.5114 357.4697 0017454 304.1775  55.7799 15.09041979 14446
IO-86
1 40931U          26199.45381863  .00000000  00000-0  77536-4 0    07
2 40931   6.0006 322.6653 0012733 338.8432 273.6875 14.79294310    03
LILIUM-4                
1 71922C 26067AC  26089.50133053 -.00014632  00000+0 -74472-3 0    04
2 71922  97.4497  49.1617 0004341   5.9603 355.7042 15.16896692    16
